Location: Gro�sch�nbrunn
(49.5760°N, 11.8868°E)
Time: 22:50:35
(UTC+00:00)

Cosmos 1898 Rocket - Pass Details

Date: 18 September 2020
Orbit: 753 x 784 km, 74.0° (Epoch: 21 October)

Event Time Altitude Azimuth Distance (km) Brightness Sun altitude
Rises 18:24:51 0° 209° (SSW) 3,194 6.9 -11.4°
Reaches altitude 10° 18:27:13 10° 212° (SSW) 2,273 6.1 -11.8°
Maximum altitude 18:32:21 69° 295° (WNW) 809 3.8 -12.6°
Drops below altitude 10° 18:37:32 10° 20° (NNE) 2,295 6.0 -13.4°
Sets 18:39:56 0° 23° (NNE) 3,228 6.7 -13.8°
